BADR-5

Last updated on Wed Sep 17 2025 00:02:47 GMT+0000 (Coordinated Universal Time)

1 36592U 10025A 25259.23199301 .00000126 00000+0 00000+0 0 9991 2 36592 0.0587 112.9812 0005466 61.5927 290.3613 1.00273247 50478
UTC large
Height (km)
Speed (km/s)
/
Latitude / Longitude
Inclination (degrees)
Orbital Period (minutes)
Azimuth
Elevation
Range (km)
Doppler Factor

Next 0 passes for location: London (51.5072 / 0.1276)

Sorry there are no passes over London.